Powrót do katalogu

BREEZE-M DEB

AktywnyHEO
NORAD 35543·DEBRIS·🇷🇺 Russia

Wystrzelony Feb 28, 2006 z Baikonur Cosmodrome

Loading…

Następne Przeloty (najbliższe 24 godziny)

TLE

NieaktualneSource: Space-Track

Epoka: Aug 18, 2026, 11:48 UTC

1 35543U 06006CL  26230.49174634 -.00000258  00000-0 -10814-2 0  9996
2 35543  52.7560 347.7687 5099500  83.3641 358.8469  5.03499593 42929

Śledź BREEZE-M DEB w czasie rzeczywistym z AllMySat

Download on the App Store